Oscoda, MI

3:07 PM EDT on September 18, 2019 (GMT -0400)
Oscoda-Wurtsmith

Weather History for KOSC - July, 2019

Change the Weather History Date:

Monday, July 15, 2019

  Actual Average Record
Temperature  
Mean Temperature 65 °F -  
Max Temperature 77 °F 77 °F 95 °F (2006)
Min Temperature 53 °F 57 °F 46 °F (2008)
Growing Degree Days 15 (Base 50)    
Moisture  
Dew Point 60 °F    
Average Humidity 80    
Maximum Humidity 100    
Minimum Humidity 49    
Precipitation  
Precipitation 0.55 in - - ()
Sea Level Pressure  
Sea Level Pressure 30.03 in    
Wind  
Wind Speed 3 mph (SSW)    
Max Wind Speed 13 mph    
Max Gust Speed 16 mph    
Visibility 10 miles    
Events Rain    
Averages and records for this station are not official NWS values.
T = Trace of Precipitation, MM = Missing Value Source: NWS Daily Summary

Daily Weather History Graph

Daily Weather History Graph

Search for Another Location

Airport or City:

Astronomy

Jul. 15, 2019 Rise Set
Actual Time 6:02 AM EDT 9:15 PM EDT
Civil Twilight 5:27 AM EDT 9:50 PM EDT
Nautical Twilight 4:41 AM EDT 10:36 PM EDT
Astronomical Twilight 3:45 AM EDT 11:32 PM EDT
Moon 8:33 PM EDT (7/15) 4:48 AM EDT (7/15)
Length of Visible Light 16h 23m
Length of Day
15h 12m
Waxing Gibbous, 98% of the Moon is Illuminated
Jul 15
Waxing Gibbous
Jul 16
Full
Jul 24
Last Quarter
Jul 31
New
Aug 7
First Quarter

Hourly Weather History & Observations

Time (EDT) Temp. Dew Point Humidity Pressure Visibility Wind Dir Wind Speed Gust Speed Precip Events Conditions
12:16 AM 56.7 °F 52.7 °F 87% 30.12 in 10.0 mi Calm Calm - N/A   Clear
12:35 AM - - N/A% 30.11 in 10.0 mi Calm Calm - N/A   Clear
12:55 AM 55.4 °F 51.3 °F 86% 30.11 in 10.0 mi Calm Calm - N/A   Clear
12:56 AM 55.2 °F 51.1 °F 86% 30.11 in 10.0 mi Calm Calm - N/A   Clear
1:19 AM 54.5 °F 52.2 °F 92% 30.11 in 10.0 mi NW 3.5 mph - N/A   Clear
1:37 AM 53.8 °F 51.4 °F 92% 30.10 in 10.0 mi Calm Calm - N/A   Clear
1:55 AM 55.0 °F 53.8 °F 96% 30.10 in 10.0 mi Calm Calm - N/A   Clear
1:56 AM 55.0 °F 53.8 °F 96% 30.10 in 10.0 mi Calm Calm - N/A   Clear
2:15 AM 54.9 °F 51.4 °F 88% 30.09 in 10.0 mi Calm Calm - N/A   Clear
2:35 AM 54.0 °F 52.7 °F 95% 30.10 in 10.0 mi Calm Calm - N/A   Clear
2:58 AM 54.7 °F 53.8 °F 97% 30.09 in 10.0 mi Calm Calm - N/A   Clear
3:16 AM 53.6 °F 49.6 °F 86% 30.09 in 10.0 mi Calm Calm - N/A   Clear
3:35 AM 54.0 °F 51.1 °F 90% 30.08 in 10.0 mi Calm Calm - N/A   Clear
3:36 AM 54.1 °F 51.1 °F 89% 30.08 in 10.0 mi Calm Calm - N/A   Clear
3:55 AM 57.7 °F 55.4 °F 92% 30.07 in 10.0 mi SSE 3.5 mph - N/A   Clear
3:56 AM 57.6 °F 54.9 °F 91% 30.07 in 10.0 mi SSE 3.5 mph - N/A   Clear
4:18 AM 61.7 °F 58.1 °F 88% 30.07 in 10.0 mi SSE 4.6 mph - N/A   Clear
4:37 AM 56.5 °F 52.7 °F 87% 30.06 in 10.0 mi Calm Calm - N/A   Clear
4:55 AM 55.2 °F 51.1 °F 86% 30.07 in 10.0 mi Calm Calm - N/A   Clear
5:15 AM 54.5 °F 52.9 °F 94% 30.07 in 10.0 mi WSW 3.5 mph - N/A   Clear
5:35 AM 54.1 °F 52.7 °F 95% 30.08 in 10.0 mi West 4.6 mph - N/A   Clear
5:58 AM 54.7 °F 52.9 °F 94% 30.08 in 10.0 mi Calm Calm - N/A   Clear
6:16 AM 54.9 °F 53.1 °F 94% 30.07 in 7.0 mi Calm Calm - N/A   Clear
6:35 AM 54.9 °F 51.8 °F 89% 30.08 in 10.0 mi Calm Calm - N/A   Clear
6:36 AM 54.9 °F 51.4 °F 88% 30.08 in 10.0 mi Calm Calm - N/A   Clear
6:55 AM 55.8 °F 52.9 °F 90% 30.08 in 10.0 mi Calm Calm - N/A   Clear
6:56 AM 55.8 °F 52.3 °F 88% 30.08 in 10.0 mi Calm Calm - N/A   Clear
7:19 AM 58.5 °F 57.0 °F 95% 30.07 in 10.0 mi Calm Calm - N/A   Clear
7:37 AM 61.3 °F 59.0 °F 92% 30.07 in 10.0 mi Calm Calm - N/A   Clear
7:55 AM 65.1 °F 61.0 °F 86% 30.08 in 10.0 mi Calm Calm - N/A   Clear
7:56 AM 65.3 °F 61.0 °F 86% 30.08 in 10.0 mi Calm Calm - N/A   Clear
8:15 AM 67.1 °F 58.8 °F 75% 30.08 in 10.0 mi SW 4.6 mph - N/A   Clear
8:16 AM 67.1 °F 58.6 °F 74% 30.08 in 10.0 mi SW 4.6 mph - N/A   Clear
8:35 AM 67.5 °F 58.5 °F 73% 30.09 in 10.0 mi SW 5.8 mph - N/A   Clear
8:58 AM 69.8 °F 57.9 °F 66% 30.10 in 10.0 mi SSW 6.9 mph - N/A   Scattered Clouds
9:16 AM 70.2 °F 58.6 °F 67% 30.10 in 10.0 mi SSW 8.1 mph - N/A   Mostly Cloudy
9:35 AM 70.7 °F 59.4 °F 67% 30.10 in 10.0 mi SSW 5.8 mph - N/A   Overcast
9:55 AM 71.4 °F 58.6 °F 64% 30.09 in 10.0 mi SSW 9.2 mph - N/A   Mostly Cloudy
10:19 AM 72.3 °F 58.5 °F 62% 30.08 in 10.0 mi SSW 6.9 mph - N/A   Mostly Cloudy
10:37 AM 73.4 °F 58.5 °F 59% 30.08 in 10.0 mi SSW 8.1 mph - N/A   Scattered Clouds
10:55 AM 75.2 °F 58.1 °F 55% 30.08 in 10.0 mi SW 10.4 mph - N/A   Scattered Clouds
10:56 AM 75.4 °F 58.1 °F 55% 30.08 in 10.0 mi SW 9.2 mph - N/A   Scattered Clouds
11:15 AM 76.6 °F 57.7 °F 52% 30.08 in 10.0 mi SSW 8.1 mph - N/A   Scattered Clouds
11:16 AM 76.6 °F 57.7 °F 52% 30.07 in 10.0 mi SSW 9.2 mph - N/A   Scattered Clouds
11:35 AM 77.9 °F 57.6 °F 49% 30.07 in 10.0 mi South 5.8 mph - N/A   Clear
11:57 AM 76.8 °F 57.4 °F 51% 30.06 in 10.0 mi Calm Calm - N/A   Mostly Cloudy
12:16 PM 76.8 °F 57.6 °F 51% 30.07 in 10.0 mi SSW 5.8 mph - N/A   Scattered Clouds
12:35 PM 75.9 °F 57.0 °F 52% 30.06 in 10.0 mi South 3.5 mph - N/A   Scattered Clouds
12:36 PM 75.9 °F 57.0 °F 52% 30.06 in 10.0 mi South 3.5 mph - N/A   Scattered Clouds
12:55 PM 75.6 °F 58.1 °F 55% 30.06 in 10.0 mi Calm Calm - N/A Rain Light Rain
12:56 PM 75.6 °F 58.3 °F 55% 30.06 in 10.0 mi Calm Calm - N/A Rain Light Rain
1:19 PM 74.7 °F 60.8 °F 62% 30.06 in 10.0 mi NNW 3.5 mph - N/A Rain Light Rain
1:37 PM 72.3 °F 61.3 °F 68% 30.08 in 10.0 mi WNW 9.2 mph - N/A Rain Rain
1:55 PM 66.6 °F 64.6 °F 93% 30.08 in 5.0 mi WNW 12.7 mph - 0.04 in Rain Heavy Rain
2:15 PM 64.6 °F 63.3 °F 96% 30.07 in 1.2 mi WSW 5.8 mph - 0.15 in Rain Heavy Rain
2:16 PM 64.6 °F 63.3 °F 96% 30.07 in 1.2 mi WSW 8.1 mph - 0.16 in Rain Heavy Rain
2:35 PM 64.0 °F 64.0 °F 100% 30.04 in 1.2 mi SE 8.1 mph - 0.50 in Rain Heavy Rain
2:40 PM 64.4 °F 64.4 °F 100% 30.02 in 2.0 mi SE 11.5 mph - 0.51 in Rain Rain
2:58 PM 66.2 °F 64.8 °F 95% 30.02 in 10.0 mi SSE 10.4 mph 16.1 mph 0.51 in   Overcast
3:16 PM 67.3 °F 64.8 °F 92% 30.00 in 10.0 mi SE 5.8 mph - N/A   Mostly Cloudy
3:35 PM 69.8 °F 65.7 °F 87% 30.00 in 10.0 mi SE 5.8 mph - N/A   Mostly Cloudy
3:55 PM 71.8 °F 64.9 °F 79% 29.99 in 10.0 mi SSE 5.8 mph - N/A   Overcast
4:19 PM 72.7 °F 64.0 °F 74% 29.98 in 10.0 mi SSE 6.9 mph - N/A   Overcast
4:37 PM 73.9 °F 63.3 °F 69% 29.98 in 10.0 mi SSE 8.1 mph - N/A   Mostly Cloudy
4:55 PM 74.3 °F 63.3 °F 68% 29.98 in 10.0 mi South 8.1 mph - N/A   Scattered Clouds
5:15 PM 73.8 °F 63.0 °F 69% 29.97 in 10.0 mi SSE 6.9 mph - N/A   Scattered Clouds
5:16 PM 73.9 °F 63.1 °F 69% 29.97 in 10.0 mi SSE 8.1 mph - N/A   Scattered Clouds
5:35 PM 75.9 °F 64.2 °F 67% 29.96 in 10.0 mi SSE 8.1 mph - N/A   Scattered Clouds
5:40 PM 76.3 °F 64.2 °F 66% 29.96 in 10.0 mi SSE 8.1 mph - N/A   Scattered Clouds
5:58 PM 76.1 °F 64.4 °F 67% 29.95 in 10.0 mi South 8.1 mph - N/A   Clear
6:16 PM 77.0 °F 65.3 °F 67% 29.95 in 10.0 mi SSW 11.5 mph - N/A   Clear
6:35 PM 76.5 °F 65.1 °F 68% 29.95 in 10.0 mi South 10.4 mph - N/A   Mostly Cloudy
6:55 PM 75.2 °F 66.2 °F 73% 29.94 in 10.0 mi SSW 8.1 mph - N/A   Mostly Cloudy
6:56 PM 75.2 °F 66.4 °F 74% 29.94 in 10.0 mi South 9.2 mph - N/A   Mostly Cloudy
7:18 PM 74.7 °F 67.1 °F 77% 29.93 in 10.0 mi South 6.9 mph - N/A   Mostly Cloudy
7:37 PM 75.9 °F 68.0 °F 76% 29.93 in 10.0 mi SSW 8.1 mph - N/A   Mostly Cloudy
7:55 PM 75.0 °F 68.0 °F 79% 29.93 in 10.0 mi SSW 5.8 mph - N/A   Mostly Cloudy
8:15 PM 74.1 °F 68.2 °F 82% 29.93 in 10.0 mi SSW 6.9 mph - N/A   Overcast
8:16 PM 74.1 °F 68.2 °F 82% 29.93 in 10.0 mi SSW 6.9 mph - N/A   Overcast
8:35 PM 73.6 °F 68.4 °F 84% 29.93 in 10.0 mi SSW 8.1 mph - N/A   Overcast
8:40 PM 73.6 °F 68.5 °F 84% 29.93 in 10.0 mi SSW 9.2 mph - N/A   Mostly Cloudy
8:58 PM 73.8 °F 68.7 °F 84% 29.93 in 10.0 mi SSW 8.1 mph - N/A   Mostly Cloudy
9:16 PM 73.8 °F 69.3 °F 86% 29.93 in 10.0 mi SSW 5.8 mph - N/A Rain Light Rain
9:35 PM 73.6 °F 69.8 °F 88% 29.92 in 10.0 mi SSW 9.2 mph - N/A   Overcast
9:55 PM 73.4 °F 69.8 °F 88% 29.92 in 10.0 mi SSW 9.2 mph - N/A   Scattered Clouds
9:56 PM 73.4 °F 69.8 °F 88% 29.92 in 10.0 mi SSW 9.2 mph - N/A   Scattered Clouds
10:19 PM 73.8 °F 69.8 °F 87% 29.92 in 10.0 mi SW 12.7 mph - N/A   Clear
10:37 PM 73.6 °F 69.8 °F 88% 29.92 in 10.0 mi SW 10.4 mph - N/A   Clear
10:55 PM 73.0 °F 70.0 °F 90% 29.92 in 10.0 mi SW 10.4 mph - N/A   Clear
11:15 PM 72.9 °F 70.3 °F 92% 29.91 in 10.0 mi SW 10.4 mph - N/A   Clear
11:35 PM 72.9 °F 70.0 °F 91% 29.91 in 10.0 mi SW 9.2 mph - N/A   Clear
11:40 PM 73.2 °F 70.0 °F 90% 29.91 in 10.0 mi SW 9.2 mph - N/A   Clear
11:58 PM 73.2 °F 69.4 °F 88% 29.91 in 10.0 mi SW 8.1 mph - N/A   Clear